NKS940 KDTW-KLAS

Flight info

Callsign NKS940
Flight time N/A
Altitude 34000
Route KAYLN3 SMUUV DCT OBK DCT IOW J60 HVE DCT GGAPP CHOWW4
Aircraft A320/M-SDE3FGHIRWY/LB1

Departure

Time 2026-05-07 11:38
Airport Detroit Metropolitan Wayne County Airport (KDTW)

Arrival

Time N/A
Airport Harry Reid International Airport (KLAS)
Time Latitude Longitude Altitude Speed Heading
2026-05-07 11:22 42.22200 -83.35185 649 ft 0 kts 36°
2026-05-07 11:29 42.22196 -83.35189 647 ft 4 kts 36°
2026-05-07 11:29 42.22174 -83.35210 647 ft 4 kts 36°
2026-05-07 11:30 42.22149 -83.35235 647 ft 4 kts 58°
2026-05-07 11:30 42.22144 -83.35252 647 ft 4 kts 103°
2026-05-07 11:30 42.22158 -83.35275 647 ft 4 kts 149°
2026-05-07 11:30 42.22168 -83.35284 647 ft 0 kts 149°
2026-05-07 11:32 42.22163 -83.35280 647 ft 2 kts 149°
2026-05-07 11:33 42.22139 -83.35260 649 ft 7 kts 149°
2026-05-07 11:33 42.22083 -83.35223 647 ft 11 kts 172°
2026-05-07 11:33 42.21998 -83.35270 648 ft 15 kts 208°
2026-05-07 11:33 42.21903 -83.35264 647 ft 16 kts 118°
2026-05-07 11:34 42.21901 -83.35110 648 ft 17 kts 89°
2026-05-07 11:34 42.21890 -83.34947 648 ft 18 kts 125°
2026-05-07 11:34 42.21833 -83.34810 647 ft 17 kts 86°
2026-05-07 11:34 42.21834 -83.34697 647 ft 13 kts 89°
2026-05-07 11:35 42.21835 -83.34571 648 ft 15 kts 91°
2026-05-07 11:35 42.21891 -83.34474 649 ft 16 kts 28°
2026-05-07 11:35 42.22007 -83.34389 648 ft 20 kts 28°
2026-05-07 11:35 42.22134 -83.34295 647 ft 22 kts 28°
2026-05-07 11:36 42.22274 -83.34192 647 ft 23 kts 28°
2026-05-07 11:36 42.22416 -83.34088 647 ft 24 kts 28°
2026-05-07 11:36 42.22566 -83.33977 648 ft 25 kts 28°
2026-05-07 11:36 42.22713 -83.33870 648 ft 21 kts 28°
2026-05-07 11:37 42.22848 -83.33770 646 ft 19 kts 28°
2026-05-07 11:37 42.22852 -83.33687 645 ft 11 kts 122°
2026-05-07 11:37 42.22785 -83.33650 646 ft 12 kts 197°
2026-05-07 11:37 42.22619 -83.33771 648 ft 58 kts 208°
2026-05-07 11:38 42.22061 -83.34183 647 ft 122 kts 208°
2026-05-07 11:38 42.21169 -83.34841 674 ft 167 kts 209°
2026-05-07 11:38 42.20145 -83.35616 1317 ft 166 kts 213°
2026-05-07 11:38 42.19325 -83.36683 1989 ft 166 kts 233°